Time,TemperatureF,DewpointF,PressureIn,WindDirection,WindDirectionDegrees,WindSpeedMPH,WindSpeedGustMPH,Humidity,HourlyPrecipIn,Conditions,Clouds,dailyrainin,SoftwareType,DateUTC
2013-01-31 00:00:00,60.0,57.1,29.43,SSE,166,4.0,11.0,90,0.00,,,0.00,Wunderground v.1.15,2013-01-31 05:00:00,
2013-01-31 00:05:00,59.5,56.6,29.43,South,190,4.0,11.0,90,0.00,,,0.00,Wunderground v.1.15,2013-01-31 05:05:00,
2013-01-31 00:10:00,59.1,56.2,29.44,SSW,198,4.0,4.0,90,0.00,,,0.00,Wunderground v.1.15,2013-01-31 05:10:00,
2013-01-31 00:15:00,58.9,56.0,29.44,SSE,164,4.0,4.0,90,0.00,,,0.00,Wunderground v.1.15,2013-01-31 05:15:00,
2013-01-31 00:20:00,58.6,56.0,29.44,South,178,4.0,5.0,91,0.00,,,0.00,Wunderground v.1.15,2013-01-31 05:20:00,
2013-01-31 00:30:00,58.0,55.4,29.45,SSW,202,3.0,6.0,91,0.00,,,0.00,Wunderground v.1.15,2013-01-31 05:30:00,
2013-01-31 00:35:00,57.7,55.1,29.45,WSW,238,3.0,6.0,91,0.00,,,0.00,Wunderground v.1.15,2013-01-31 05:35:00,
2013-01-31 00:40:00,57.3,54.7,29.47,SW,215,4.0,7.0,91,0.00,,,0.00,Wunderground v.1.15,2013-01-31 05:40:00,
2013-01-31 00:45:00,56.8,54.2,29.46,SW,227,4.0,7.0,91,0.00,,,0.00,Wunderground v.1.15,2013-01-31 05:45:00,
2013-01-31 00:50:00,56.4,53.5,29.44,SSW,205,4.0,8.0,90,0.00,,,0.00,Wunderground v.1.15,2013-01-31 05:50:00,
2013-01-31 00:55:00,56.0,53.4,29.44,SSW,207,3.0,8.0,91,0.00,,,0.00,Wunderground v.1.15,2013-01-31 05:55:00,
2013-01-31 01:00:00,55.7,53.1,29.44,South,185,3.0,3.0,91,0.00,,,0.00,Wunderground v.1.15,2013-01-31 06:00:00,
2013-01-31 01:10:00,55.4,52.8,29.43,NNE,17,2.0,5.0,91,0.00,,,0.00,Wunderground v.1.15,2013-01-31 06:10:00,
2013-01-31 01:20:00,55.2,52.0,29.45,South,182,5.0,5.0,89,0.00,,,0.00,Wunderground v.1.15,2013-01-31 06:20:00,
2013-01-31 01:25:00,55.1,51.9,29.45,South,187,3.0,5.0,89,0.00,,,0.00,Wunderground v.1.15,2013-01-31 06:25:00,
2013-01-31 01:30:00,54.9,51.7,29.45,ESE,114,3.0,5.0,89,0.00,,,0.00,Wunderground v.1.15,2013-01-31 06:30:00,
2013-01-31 01:40:00,54.5,51.3,29.44,SE,131,4.0,11.0,89,0.00,,,0.00,Wunderground v.1.15,2013-01-31 06:40:00,
2013-01-31 01:50:00,54.1,50.9,29.44,South,171,3.0,4.0,89,0.00,,,0.00,Wunderground v.1.15,2013-01-31 06:50:00,
2013-01-31 01:55:00,53.9,51.6,29.45,SSW,211,3.0,6.0,92,0.00,,,0.00,Wunderground v.1.15,2013-01-31 06:55:00,
2013-01-31 02:00:00,53.8,50.3,29.45,South,188,4.0,4.0,88,0.00,,,0.00,Wunderground v.1.15,2013-01-31 07:00:00,
2013-01-31 02:05:00,53.6,50.1,29.45,SW,217,4.0,4.0,88,0.00,,,0.00,Wunderground v.1.15,2013-01-31 07:05:00,
2013-01-31 02:10:00,53.4,49.6,29.45,SSE,154,4.0,4.0,87,0.00,,,0.00,Wunderground v.1.15,2013-01-31 07:10:00,
2013-01-31 02:20:00,53.0,48.9,29.47,WSW,238,4.0,13.0,86,0.00,,,0.00,Wunderground v.1.15,2013-01-31 07:20:00,
2013-01-31 02:30:00,52.6,48.2,29.47,West,276,3.0,3.0,85,0.00,,,0.00,Wunderground v.1.15,2013-01-31 07:30:00,
2013-01-31 02:35:00,52.4,48.0,29.47,SSW,192,3.0,7.0,85,0.00,,,0.00,Wunderground v.1.15,2013-01-31 07:35:00,
2013-01-31 02:40:00,52.3,47.9,29.46,SSW,202,4.0,5.0,85,0.00,,,0.00,Wunderground v.1.15,2013-01-31 07:40:00,
2013-01-31 02:45:00,52.1,47.4,29.47,SW,228,5.0,5.0,84,0.00,,,0.00,Wunderground v.1.15,2013-01-31 07:45:00,
2013-01-31 02:50:00,52.0,47.0,29.48,SW,227,4.0,4.0,83,0.00,,,0.00,Wunderground v.1.15,2013-01-31 07:50:00,
2013-01-31 02:55:00,51.9,46.9,29.47,SW,214,3.0,5.0,83,0.00,,,0.00,Wunderground v.1.15,2013-01-31 07:55:00,
2013-01-31 03:00:00,51.7,46.4,29.49,WSW,240,3.0,9.0,82,0.00,,,0.00,Wunderground v.1.15,2013-01-31 08:00:00,
2013-01-31 03:10:00,51.5,46.2,29.49,SSE,166,3.0,3.0,82,0.00,,,0.00,Wunderground v.1.15,2013-01-31 08:10:00,
2013-01-31 03:15:00,51.5,46.5,29.49,NW,320,2.0,3.0,83,0.00,,,0.00,Wunderground v.1.15,2013-01-31 08:15:00,
2013-01-31 03:20:00,51.3,46.0,29.49,South,171,3.0,3.0,82,0.00,,,0.00,Wunderground v.1.15,2013-01-31 08:20:00,
2013-01-31 03:25:00,51.2,45.9,29.49,SW,215,3.0,3.0,82,0.00,,,0.00,Wunderground v.1.15,2013-01-31 08:25:00,
2013-01-31 03:30:00,51.1,45.8,29.49,WSW,240,2.0,4.0,82,0.00,,,0.00,Wunderground v.1.15,2013-01-31 08:30:00,
2013-01-31 03:35:00,51.0,45.7,29.50,WSW,237,3.0,4.0,82,0.00,,,0.00,Wunderground v.1.15,2013-01-31 08:35:00,
2013-01-31 03:40:00,50.9,45.9,29.50,WSW,250,4.0,9.0,83,0.00,,,0.00,Wunderground v.1.15,2013-01-31 08:40:00,
2013-01-31 03:45:00,50.8,45.5,29.50,SW,229,4.0,9.0,82,0.00,,,0.00,Wunderground v.1.15,2013-01-31 08:45:00,
2013-01-31 03:50:00,50.8,45.5,29.50,WSW,238,4.0,4.0,82,0.00,,,0.00,Wunderground v.1.15,2013-01-31 08:50:00,
2013-01-31 03:55:00,50.6,45.3,29.50,SSW,209,4.0,4.0,82,0.00,,,0.00,Wunderground v.1.15,2013-01-31 08:55:00,
2013-01-31 04:00:00,50.4,45.4,29.51,WSW,246,4.0,4.0,83,0.00,,,0.00,Wunderground v.1.15,2013-01-31 09:00:00,
2013-01-31 04:10:00,50.2,45.2,29.52,South,183,5.0,6.0,83,0.00,,,0.00,Wunderground v.1.15,2013-01-31 09:10:00,
2013-01-31 04:15:00,50.1,45.1,29.53,SW,228,4.0,6.0,83,0.00,,,0.00,Wunderground v.1.15,2013-01-31 09:15:00,
2013-01-31 04:20:00,50.0,45.0,29.53,West,271,3.0,4.0,83,0.00,,,0.00,Wunderground v.1.15,2013-01-31 09:20:00,
2013-01-31 04:25:00,49.9,44.9,29.53,SW,219,3.0,4.0,83,0.00,,,0.00,Wunderground v.1.15,2013-01-31 09:25:00,
2013-01-31 04:30:00,49.8,44.2,29.54,West,260,4.0,4.0,81,0.00,,,0.00,Wunderground v.1.15,2013-01-31 09:30:00,
2013-01-31 04:35:00,49.7,43.8,29.55,WSW,238,4.0,4.0,80,0.00,,,0.00,Wunderground v.1.15,2013-01-31 09:35:00,
2013-01-31 04:40:00,49.6,43.7,29.55,South,176,3.0,3.0,80,0.00,,,0.00,Wunderground v.1.15,2013-01-31 09:40:00,
2013-01-31 04:45:00,49.5,43.9,29.55,SW,214,3.0,8.0,81,0.00,,,0.00,Wunderground v.1.15,2013-01-31 09:45:00,
2013-01-31 04:50:00,49.5,43.6,29.56,SW,229,3.0,3.0,80,0.00,,,0.00,Wunderground v.1.15,2013-01-31 09:50:00,
2013-01-31 05:00:00,49.3,42.7,29.56,South,179,3.0,3.0,78,0.00,,,0.00,Wunderground v.1.15,2013-01-31 10:00:00,
2013-01-31 05:10:00,49.0,40.4,29.58,West,263,3.0,3.0,72,0.00,,,0.00,Wunderground v.1.15,2013-01-31 10:10:00,
2013-01-31 05:15:00,48.8,39.4,29.58,SSW,194,3.0,6.0,70,0.00,,,0.00,Wunderground v.1.15,2013-01-31 10:15:00,
2013-01-31 05:20:00,48.6,38.5,29.59,West,278,3.0,7.0,68,0.00,,,0.00,Wunderground v.1.15,2013-01-31 10:20:00,
2013-01-31 05:25:00,48.5,38.0,29.59,WSW,247,4.0,7.0,67,0.00,,,0.00,Wunderground v.1.15,2013-01-31 10:25:00,
2013-01-31 05:30:00,48.2,38.9,29.60,WSW,255,4.0,4.0,70,0.00,,,0.00,Wunderground v.1.15,2013-01-31 10:30:00,
2013-01-31 05:40:00,47.7,37.3,29.60,WSW,254,3.0,3.0,67,0.00,,,0.00,Wunderground v.1.15,2013-01-31 10:40:00,
2013-01-31 05:45:00,47.6,37.2,29.61,SW,221,3.0,3.0,67,0.00,,,0.00,Wunderground v.1.15,2013-01-31 10:45:00,
2013-01-31 05:50:00,47.3,36.9,29.61,SW,219,3.0,3.0,67,0.00,,,0.00,Wunderground v.1.15,2013-01-31 10:50:00,
2013-01-31 05:55:00,47.2,37.2,29.61,WNW,286,2.0,4.0,68,0.00,,,0.00,Wunderground v.1.15,2013-01-31 10:55:00,
2013-01-31 06:00:00,47.0,37.4,29.62,WSW,249,2.0,4.0,69,0.00,,,0.00,Wunderground v.1.15,2013-01-31 11:00:00,
2013-01-31 06:05:00,46.8,36.8,29.63,WSW,238,2.0,4.0,68,0.00,,,0.00,Wunderground v.1.15,2013-01-31 11:05:00,
2013-01-31 06:10:00,46.5,37.2,29.63,WSW,250,2.0,4.0,70,0.00,,,0.00,Wunderground v.1.15,2013-01-31 11:10:00,
2013-01-31 06:20:00,46.1,36.9,29.64,WSW,243,1.0,9.0,70,0.00,,,0.00,Wunderground v.1.15,2013-01-31 11:20:00,
2013-01-31 06:25:00,46.0,36.4,29.64,SSW,194,3.0,9.0,69,0.00,,,0.00,Wunderground v.1.15,2013-01-31 11:25:00,
2013-01-31 06:30:00,45.8,35.8,29.65,WNW,298,3.0,3.0,68,0.00,,,0.00,Wunderground v.1.15,2013-01-31 11:30:00,
2013-01-31 06:35:00,45.6,36.0,29.65,WSW,248,3.0,4.0,69,0.00,,,0.00,Wunderground v.1.15,2013-01-31 11:35:00,
2013-01-31 06:40:00,45.4,35.5,29.66,WNW,296,2.0,4.0,68,0.00,,,0.00,Wunderground v.1.15,2013-01-31 11:40:00,
2013-01-31 06:45:00,45.3,35.7,29.66,SW,225,3.0,5.0,69,0.00,,,0.00,Wunderground v.1.15,2013-01-31 11:45:00,
2013-01-31 06:50:00,45.2,35.3,29.67,WSW,250,3.0,3.0,68,0.00,,,0.00,Wunderground v.1.15,2013-01-31 11:50:00,
2013-01-31 06:55:00,45.0,36.2,29.67,South,180,2.0,3.0,71,0.00,,,0.00,Wunderground v.1.15,2013-01-31 11:55:00,
2013-01-31 07:00:00,44.7,35.9,29.68,SW,220,1.0,1.0,71,0.00,,,0.00,Wunderground v.1.15,2013-01-31 12:00:00,
2013-01-31 07:05:00,44.6,35.1,29.68,WSW,254,1.0,1.0,69,0.00,,,0.00,Wunderground v.1.15,2013-01-31 12:05:00,
2013-01-31 07:10:00,44.4,34.5,29.69,West,272,2.0,3.0,68,0.00,,,0.00,Wunderground v.1.15,2013-01-31 12:10:00,
2013-01-31 07:15:00,44.2,35.0,29.70,SW,232,2.0,3.0,70,0.00,,,0.00,Wunderground v.1.15,2013-01-31 12:15:00,
2013-01-31 07:20:00,44.0,34.1,29.70,NW,322,3.0,3.0,68,0.00,,,0.00,Wunderground v.1.15,2013-01-31 12:20:00,
2013-01-31 07:25:00,43.7,32.7,29.70,SW,234,3.0,7.0,65,0.00,,,0.00,Wunderground v.1.15,2013-01-31 12:25:00,
2013-01-31 07:30:00,43.4,31.6,29.71,WSW,254,4.0,4.0,63,0.00,,,0.00,Wunderground v.1.15,2013-01-31 12:30:00,
2013-01-31 07:35:00,43.1,30.6,29.71,West,278,4.0,5.0,61,0.00,,,0.00,Wunderground v.1.15,2013-01-31 12:35:00,
2013-01-31 07:40:00,42.9,30.0,29.72,SW,234,4.0,6.0,60,0.00,,,0.00,Wunderground v.1.15,2013-01-31 12:40:00,
2013-01-31 07:45:00,42.7,30.2,29.72,WNW,282,4.0,6.0,61,0.00,,,0.00,Wunderground v.1.15,2013-01-31 12:45:00,
2013-01-31 07:50:00,42.6,30.1,29.73,West,269,4.0,4.0,61,0.00,,,0.00,Wunderground v.1.15,2013-01-31 12:50:00,
2013-01-31 08:00:00,42.3,29.8,29.74,WSW,238,2.0,10.0,61,0.00,,,0.00,Wunderground v.1.15,2013-01-31 13:00:00,
2013-01-31 08:10:00,42.0,29.1,29.76,WSW,252,2.0,2.0,60,0.00,,,0.00,Wunderground v.1.15,2013-01-31 13:10:00,
2013-01-31 08:20:00,41.7,28.8,29.76,SSW,194,3.0,3.0,60,0.00,,,0.00,Wunderground v.1.15,2013-01-31 13:20:00,
2013-01-31 08:25:00,41.6,29.5,29.77,West,267,3.0,3.0,62,0.00,,,0.00,Wunderground v.1.15,2013-01-31 13:25:00,
2013-01-31 08:30:00,41.5,29.0,29.77,South,173,3.0,8.0,61,0.00,,,0.00,Wunderground v.1.15,2013-01-31 13:30:00,
2013-01-31 08:35:00,41.5,29.0,29.78,West,279,4.0,8.0,61,0.00,,,0.00,Wunderground v.1.15,2013-01-31 13:35:00,
2013-01-31 08:40:00,41.4,28.5,29.78,West,261,5.0,5.0,60,0.00,,,0.00,Wunderground v.1.15,2013-01-31 13:40:00,
2013-01-31 08:45:00,41.4,28.5,29.78,WSW,242,5.0,5.0,60,0.00,,,0.00,Wunderground v.1.15,2013-01-31 13:45:00,
2013-01-31 08:50:00,41.4,29.3,29.79,East,98,4.0,4.0,62,0.00,,,0.00,Wunderground v.1.15,2013-01-31 13:50:00,
2013-01-31 08:55:00,41.4,28.5,29.79,West,261,3.0,4.0,60,0.00,,,0.00,Wunderground v.1.15,2013-01-31 13:55:00,
2013-01-31 09:00:00,41.5,28.6,29.80,WNW,290,3.0,3.0,60,0.00,,,0.00,Wunderground v.1.15,2013-01-31 14:00:00,
2013-01-31 09:05:00,41.5,29.0,29.80,WNW,300,3.0,3.0,61,0.00,,,0.00,Wunderground v.1.15,2013-01-31 14:05:00,
2013-01-31 09:10:00,41.5,28.6,29.81,West,275,3.0,4.0,60,0.00,,,0.00,Wunderground v.1.15,2013-01-31 14:10:00,
2013-01-31 09:15:00,41.6,29.5,29.81,WNW,296,3.0,4.0,62,0.00,,,0.00,Wunderground v.1.15,2013-01-31 14:15:00,
2013-01-31 09:20:00,41.8,28.5,29.82,WSW,245,3.0,3.0,59,0.00,,,0.00,Wunderground v.1.15,2013-01-31 14:20:00,
2013-01-31 09:25:00,41.9,28.6,29.82,WSW,255,3.0,3.0,59,0.00,,,0.00,Wunderground v.1.15,2013-01-31 14:25:00,
2013-01-31 09:30:00,42.2,28.9,29.82,WNW,297,2.0,4.0,59,0.00,,,0.00,Wunderground v.1.15,2013-01-31 14:30:00,
2013-01-31 09:35:00,42.2,29.7,29.82,NNE,17,3.0,10.0,61,0.00,,,0.00,Wunderground v.1.15,2013-01-31 14:35:00,
2013-01-31 09:40:00,42.3,28.6,29.83,SW,232,4.0,4.0,58,0.00,,,0.00,Wunderground v.1.15,2013-01-31 14:40:00,
2013-01-31 09:45:00,42.4,29.1,29.82,WSW,255,4.0,4.0,59,0.00,,,0.00,Wunderground v.1.15,2013-01-31 14:45:00,
2013-01-31 09:50:00,42.8,29.0,29.83,West,263,2.0,2.0,58,0.00,,,0.00,Wunderground v.1.15,2013-01-31 14:50:00,
2013-01-31 09:55:00,43.2,29.8,29.83,WSW,248,2.0,3.0,59,0.00,,,0.00,Wunderground v.1.15,2013-01-31 14:55:00,
2013-01-31 10:00:00,43.4,29.2,29.84,SW,235,3.0,3.0,57,0.00,,,0.00,Wunderground v.1.15,2013-01-31 15:00:00,
2013-01-31 10:10:00,43.3,27.3,29.83,South,184,4.0,4.0,53,0.00,,,0.00,Wunderground v.1.15,2013-01-31 15:10:00,
2013-01-31 10:15:00,43.2,26.7,29.84,SW,224,5.0,5.0,52,0.00,,,0.00,Wunderground v.1.15,2013-01-31 15:15:00,
2013-01-31 10:20:00,43.3,27.3,29.84,WNW,302,4.0,4.0,53,0.00,,,0.00,Wunderground v.1.15,2013-01-31 15:20:00,
2013-01-31 10:25:00,43.4,27.4,29.84,WNW,292,4.0,4.0,53,0.00,,,0.00,Wunderground v.1.15,2013-01-31 15:25:00,
2013-01-31 10:30:00,43.5,25.6,29.84,SSW,210,4.0,4.0,49,0.00,,,0.00,Wunderground v.1.15,2013-01-31 15:30:00,
2013-01-31 10:40:00,43.9,26.4,29.85,WNW,286,4.0,4.0,50,0.00,,,0.00,Wunderground v.1.15,2013-01-31 15:40:00,
2013-01-31 10:45:00,44.0,25.0,29.85,WNW,294,3.0,4.0,47,0.00,,,0.00,Wunderground v.1.15,2013-01-31 15:45:00,
2013-01-31 10:50:00,44.2,24.7,29.86,West,265,4.0,5.0,46,0.00,,,0.00,Wunderground v.1.15,2013-01-31 15:50:00,
2013-01-31 10:55:00,44.0,24.0,29.86,WSW,251,4.0,5.0,45,0.00,,,0.00,Wunderground v.1.15,2013-01-31 15:55:00,
2013-01-31 11:00:00,44.0,24.5,29.86,West,267,4.0,4.0,46,0.00,,,0.00,Wunderground v.1.15,2013-01-31 16:00:00,
2013-01-31 11:05:00,44.2,24.2,29.86,West,267,4.0,6.0,45,0.00,,,0.00,Wunderground v.1.15,2013-01-31 16:05:00,
2013-01-31 11:10:00,44.2,23.6,29.86,West,269,4.0,4.0,44,0.00,,,0.00,Wunderground v.1.15,2013-01-31 16:10:00,
2013-01-31 11:15:00,44.1,23.6,29.87,WNW,284,5.0,5.0,44,0.00,,,0.00,Wunderground v.1.15,2013-01-31 16:15:00,
2013-01-31 11:20:00,44.2,24.7,29.87,WNW,303,4.0,4.0,46,0.00,,,0.00,Wunderground v.1.15,2013-01-31 16:20:00,
2013-01-31 11:25:00,44.3,23.2,29.87,SE,142,5.0,6.0,43,0.00,,,0.00,Wunderground v.1.15,2013-01-31 16:25:00,
2013-01-31 11:30:00,44.5,22.8,29.87,West,273,4.0,8.0,42,0.00,,,0.00,Wunderground v.1.15,2013-01-31 16:30:00,
2013-01-31 11:35:00,44.6,23.5,29.87,SW,229,4.0,8.0,43,0.00,,,0.00,Wunderground v.1.15,2013-01-31 16:35:00,
2013-01-31 11:40:00,44.8,23.6,29.87,SW,234,4.0,4.0,43,0.00,,,0.00,Wunderground v.1.15,2013-01-31 16:40:00,
2013-01-31 11:45:00,45.0,23.3,29.87,SE,139,3.0,4.0,42,0.00,,,0.00,Wunderground v.1.15,2013-01-31 16:45:00,
2013-01-31 11:50:00,45.0,24.9,29.87,North,355,4.0,4.0,45,0.00,,,0.00,Wunderground v.1.15,2013-01-31 16:50:00,
2013-01-31 11:55:00,45.2,23.4,29.87,SW,230,3.0,5.0,42,0.00,,,0.00,Wunderground v.1.15,2013-01-31 16:55:00,
2013-01-31 12:00:00,45.5,25.4,29.86,WNW,292,3.0,6.0,45,0.00,,,0.00,Wunderground v.1.15,2013-01-31 17:00:00,
2013-01-31 12:05:00,45.4,24.2,29.86,West,273,4.0,6.0,43,0.00,,,0.00,Wunderground v.1.15,2013-01-31 17:05:00,
2013-01-31 12:10:00,45.2,23.4,29.86,WNW,298,4.0,4.0,42,0.00,,,0.00,Wunderground v.1.15,2013-01-31 17:10:00,
2013-01-31 12:15:00,45.3,24.6,29.86,WNW,284,3.0,4.0,44,0.00,,,0.00,Wunderground v.1.15,2013-01-31 17:15:00,
2013-01-31 12:20:00,45.4,23.6,29.86,NW,306,3.0,4.0,42,0.00,,,0.00,Wunderground v.1.15,2013-01-31 17:20:00,
2013-01-31 12:30:00,45.6,24.9,29.86,SSW,201,3.0,5.0,44,0.00,,,0.00,Wunderground v.1.15,2013-01-31 17:30:00,
2013-01-31 12:35:00,45.9,26.8,29.86,SSE,165,3.0,5.0,47,0.00,,,0.00,Wunderground v.1.15,2013-01-31 17:35:00,
2013-01-31 12:40:00,45.8,25.6,29.85,WSW,244,3.0,3.0,45,0.00,,,0.00,Wunderground v.1.15,2013-01-31 17:40:00,
2013-01-31 12:45:00,45.9,26.3,29.85,SSW,207,2.0,5.0,46,0.00,,,0.00,Wunderground v.1.15,2013-01-31 17:45:00,
2013-01-31 12:50:00,46.0,25.3,29.85,WSW,252,3.0,3.0,44,0.00,,,0.00,Wunderground v.1.15,2013-01-31 17:50:00,
2013-01-31 13:00:00,45.1,24.5,29.85,WSW,253,4.0,4.0,44,0.00,,,0.00,Wunderground v.1.15,2013-01-31 18:00:00,
2013-01-31 13:05:00,44.7,23.0,29.85,ENE,67,4.0,6.0,42,0.00,,,0.00,Wunderground v.1.15,2013-01-31 18:05:00,
2013-01-31 13:10:00,45.0,24.9,29.85,West,267,4.0,9.0,45,0.00,,,0.00,Wunderground v.1.15,2013-01-31 18:10:00,
2013-01-31 13:15:00,45.5,24.3,29.85,SW,214,4.0,9.0,43,0.00,,,0.00,Wunderground v.1.15,2013-01-31 18:15:00,
2013-01-31 13:20:00,46.0,23.6,29.85,SW,227,4.0,4.0,41,0.00,,,0.00,Wunderground v.1.15,2013-01-31 18:20:00,
2013-01-31 13:25:00,46.0,24.2,29.85,WNW,294,4.0,4.0,42,0.00,,,0.00,Wunderground v.1.15,2013-01-31 18:25:00,
2013-01-31 13:30:00,45.8,23.4,29.85,West,279,3.0,4.0,41,0.00,,,0.00,Wunderground v.1.15,2013-01-31 18:30:00,
2013-01-31 13:35:00,45.7,23.9,29.86,NNW,342,3.0,4.0,42,0.00,,,0.00,Wunderground v.1.15,2013-01-31 18:35:00,
2013-01-31 13:40:00,45.6,23.8,29.85,NE,55,3.0,3.0,42,0.00,,,0.00,Wunderground v.1.15,2013-01-31 18:40:00,
2013-01-31 13:45:00,45.9,24.1,29.85,West,262,3.0,3.0,42,0.00,,,0.00,Wunderground v.1.15,2013-01-31 18:45:00,
2013-01-31 13:50:00,46.1,24.8,29.85,WNW,286,3.0,5.0,43,0.00,,,0.00,Wunderground v.1.15,2013-01-31 18:50:00,
2013-01-31 13:55:00,46.4,24.5,29.85,South,175,3.0,5.0,42,0.00,,,0.00,Wunderground v.1.15,2013-01-31 18:55:00,
2013-01-31 14:00:00,46.6,24.1,29.86,SSW,202,4.0,4.0,41,0.00,,,0.00,Wunderground v.1.15,2013-01-31 19:00:00,
2013-01-31 14:05:00,46.7,23.0,29.85,SW,231,4.0,6.0,39,0.00,,,0.00,Wunderground v.1.15,2013-01-31 19:05:00,
2013-01-31 14:10:00,46.9,23.2,29.86,WSW,246,4.0,4.0,39,0.00,,,0.00,Wunderground v.1.15,2013-01-31 19:10:00,
2013-01-31 14:15:00,46.9,23.2,29.85,WSW,241,3.0,4.0,39,0.00,,,0.00,Wunderground v.1.15,2013-01-31 19:15:00,
2013-01-31 14:20:00,46.8,22.5,29.86,NW,311,4.0,4.0,38,0.00,,,0.00,Wunderground v.1.15,2013-01-31 19:20:00,
2013-01-31 14:30:00,45.5,23.1,29.86,South,175,4.0,10.0,41,0.00,,,0.00,Wunderground v.1.15,2013-01-31 19:30:00,
2013-01-31 14:35:00,45.5,22.5,29.87,SSE,155,3.0,10.0,40,0.00,,,0.00,Wunderground v.1.15,2013-01-31 19:35:00,
2013-01-31 14:40:00,46.0,23.0,29.87,NW,317,4.0,4.0,40,0.00,,,0.00,Wunderground v.1.15,2013-01-31 19:40:00,
2013-01-31 14:45:00,46.1,23.1,29.86,West,277,3.0,4.0,40,0.00,,,0.00,Wunderground v.1.15,2013-01-31 19:45:00,
2013-01-31 14:50:00,46.3,24.4,29.86,WSW,256,2.0,2.0,42,0.00,,,0.00,Wunderground v.1.15,2013-01-31 19:50:00,
2013-01-31 14:55:00,46.4,23.9,29.87,WSW,248,2.0,2.0,41,0.00,,,0.00,Wunderground v.1.15,2013-01-31 19:55:00,
2013-01-31 15:00:00,46.0,22.4,29.88,WNW,298,3.0,3.0,39,0.00,,,0.00,Wunderground v.1.15,2013-01-31 20:00:00,
2013-01-31 15:05:00,45.7,23.3,29.88,East,92,2.0,3.0,41,0.00,,,0.00,Wunderground v.1.15,2013-01-31 20:05:00,
2013-01-31 15:10:00,45.8,23.4,29.88,West,279,2.0,3.0,41,0.00,,,0.00,Wunderground v.1.15,2013-01-31 20:10:00,
2013-01-31 15:20:00,46.1,22.5,29.89,NW,304,3.0,3.0,39,0.00,,,0.00,Wunderground v.1.15,2013-01-31 20:20:00,
2013-01-31 15:25:00,46.1,22.5,29.89,SSW,200,3.0,4.0,39,0.00,,,0.00,Wunderground v.1.15,2013-01-31 20:25:00,
2013-01-31 15:30:00,46.1,22.5,29.89,WSW,258,3.0,3.0,39,0.00,,,0.00,Wunderground v.1.15,2013-01-31 20:30:00,
2013-01-31 15:40:00,46.3,22.7,29.89,SW,230,3.0,3.0,39,0.00,,,0.00,Wunderground v.1.15,2013-01-31 20:40:00,
2013-01-31 15:50:00,45.9,21.1,29.90,North,360,5.0,5.0,37,0.00,,,0.00,Wunderground v.1.15,2013-01-31 20:50:00,
2013-01-31 15:55:00,45.6,22.0,29.91,West,265,5.0,5.0,39,0.00,,,0.00,Wunderground v.1.15,2013-01-31 20:55:00,
2013-01-31 16:00:00,45.4,21.2,29.91,SW,234,4.0,4.0,38,0.00,,,0.00,Wunderground v.1.15,2013-01-31 21:00:00,
2013-01-31 16:05:00,45.2,21.7,29.91,West,276,4.0,4.0,39,0.00,,,0.00,Wunderground v.1.15,2013-01-31 21:05:00,
2013-01-31 16:10:00,45.1,21.6,29.92,NW,309,3.0,3.0,39,0.00,,,0.00,Wunderground v.1.15,2013-01-31 21:10:00,
2013-01-31 16:15:00,45.0,22.1,29.92,West,275,3.0,3.0,40,0.00,,,0.00,Wunderground v.1.15,2013-01-31 21:15:00,
2013-01-31 16:20:00,45.0,21.5,29.92,SSW,199,3.0,3.0,39,0.00,,,0.00,Wunderground v.1.15,2013-01-31 21:20:00,
2013-01-31 16:30:00,44.6,22.3,29.92,West,270,3.0,3.0,41,0.00,,,0.00,Wunderground v.1.15,2013-01-31 21:30:00,
2013-01-31 16:35:00,44.5,22.2,29.92,WNW,292,3.0,4.0,41,0.00,,,0.00,Wunderground v.1.15,2013-01-31 21:35:00,
2013-01-31 16:40:00,44.4,22.1,29.93,WNW,295,3.0,3.0,41,0.00,,,0.00,Wunderground v.1.15,2013-01-31 21:40:00,
2013-01-31 16:50:00,44.3,23.2,29.93,WSW,248,3.0,5.0,43,0.00,,,0.00,Wunderground v.1.15,2013-01-31 21:50:00,
2013-01-31 16:55:00,44.1,23.0,29.93,West,269,2.0,5.0,43,0.00,,,0.00,Wunderground v.1.15,2013-01-31 21:55:00,
2013-01-31 17:00:00,44.0,21.2,29.93,WSW,242,2.0,2.0,40,0.00,,,0.00,Wunderground v.1.15,2013-01-31 22:00:00,
2013-01-31 17:05:00,43.9,22.3,29.94,WNW,297,2.0,2.0,42,0.00,,,0.00,Wunderground v.1.15,2013-01-31 22:05:00,
2013-01-31 17:10:00,43.7,21.5,29.94,WSW,240,3.0,3.0,41,0.00,,,0.00,Wunderground v.1.15,2013-01-31 22:10:00,
2013-01-31 17:15:00,43.6,20.8,29.93,WSW,239,3.0,6.0,40,0.00,,,0.00,Wunderground v.1.15,2013-01-31 22:15:00,
2013-01-31 17:20:00,43.5,20.7,29.93,SSW,205,3.0,3.0,40,0.00,,,0.00,Wunderground v.1.15,2013-01-31 22:20:00,
2013-01-31 17:30:00,43.2,22.2,29.94,West,263,1.0,1.0,43,0.00,,,0.00,Wunderground v.1.15,2013-01-31 22:30:00,
2013-01-31 17:40:00,42.8,22.9,29.94,WSW,250,2.0,2.0,45,0.00,,,0.00,Wunderground v.1.15,2013-01-31 22:40:00,
2013-01-31 17:45:00,42.6,22.7,29.95,West,271,1.0,2.0,45,0.00,,,0.00,Wunderground v.1.15,2013-01-31 22:45:00,
2013-01-31 17:50:00,42.4,22.0,29.95,WSW,252,2.0,4.0,44,0.00,,,0.00,Wunderground v.1.15,2013-01-31 22:50:00,
2013-01-31 17:55:00,42.3,22.4,29.95,WSW,256,2.0,4.0,45,0.00,,,0.00,Wunderground v.1.15,2013-01-31 22:55:00,
2013-01-31 18:00:00,42.1,22.3,29.95,WSW,244,2.0,2.0,45,0.00,,,0.00,Wunderground v.1.15,2013-01-31 23:00:00,
2013-01-31 18:10:00,41.6,22.8,29.96,WSW,248,1.0,1.0,47,0.00,,,0.00,Wunderground v.1.15,2013-01-31 23:10:00,
2013-01-31 18:15:00,41.4,22.1,29.96,SW,217,1.0,1.0,46,0.00,,,0.00,Wunderground v.1.15,2013-01-31 23:15:00,
2013-01-31 18:20:00,41.2,22.0,29.96,West,268,0.0,4.0,46,0.00,,,0.00,Wunderground v.1.15,2013-01-31 23:20:00,
2013-01-31 18:25:00,41.2,22.5,29.97,NW,307,1.0,4.0,47,0.00,,,0.00,Wunderground v.1.15,2013-01-31 23:25:00,
2013-01-31 18:30:00,41.1,22.9,29.97,West,259,2.0,2.0,48,0.00,,,0.00,Wunderground v.1.15,2013-01-31 23:30:00,
2013-01-31 18:35:00,41.0,21.8,29.97,SW,234,1.0,2.0,46,0.00,,,0.00,Wunderground v.1.15,2013-01-31 23:35:00,
2013-01-31 18:40:00,41.0,22.3,29.98,ENE,73,1.0,1.0,47,0.00,,,0.00,Wunderground v.1.15,2013-01-31 23:40:00,
2013-01-31 18:45:00,40.9,21.7,29.98,WSW,251,1.0,1.0,46,0.00,,,0.00,Wunderground v.1.15,2013-01-31 23:45:00,
2013-01-31 18:50:00,40.8,21.6,29.98,WNW,299,1.0,1.0,46,0.00,,,0.00,Wunderground v.1.15,2013-01-31 23:50:00,
2013-01-31 19:00:00,40.6,21.4,29.98,WSW,246,1.0,6.0,46,0.00,,,0.00,Wunderground v.1.15,2013-02-01 00:00:00,
2013-01-31 19:05:00,40.7,22.0,29.99,West,276,2.0,6.0,47,0.00,,,0.00,Wunderground v.1.15,2013-02-01 00:05:00,
2013-01-31 19:10:00,40.6,21.4,29.99,WSW,252,1.0,1.0,46,0.00,,,0.00,Wunderground v.1.15,2013-02-01 00:10:00,
2013-01-31 19:15:00,40.5,21.3,29.99,SW,234,1.0,3.0,46,0.00,,,0.00,Wunderground v.1.15,2013-02-01 00:15:00,
2013-01-31 19:20:00,40.4,21.7,29.99,South,173,1.0,1.0,47,0.00,,,0.00,Wunderground v.1.15,2013-02-01 00:20:00,
2013-01-31 19:25:00,40.2,22.1,29.99,South,175,0.0,1.0,48,0.00,,,0.00,Wunderground v.1.15,2013-02-01 00:25:00,
2013-01-31 19:30:00,40.1,22.0,30.00,WSW,249,0.0,0.0,48,0.00,,,0.00,Wunderground v.1.15,2013-02-01 00:30:00,
2013-01-31 19:40:00,39.7,21.1,30.00,SSW,211,0.0,0.0,47,0.00,,,0.00,Wunderground v.1.15,2013-02-01 00:40:00,
2013-01-31 19:45:00,39.6,21.5,30.00,SW,229,0.0,0.0,48,0.00,,,0.00,Wunderground v.1.15,2013-02-01 00:45:00,
2013-01-31 19:50:00,39.4,21.3,30.00,SW,234,0.0,0.0,48,0.00,,,0.00,Wunderground v.1.15,2013-02-01 00:50:00,
2013-01-31 19:55:00,39.2,21.6,30.00,SW,225,0.0,1.0,49,0.00,,,0.00,Wunderground v.1.15,2013-02-01 00:55:00,
2013-01-31 20:00:00,39.1,21.5,30.00,SW,220,0.0,0.0,49,0.00,,,0.00,Wunderground v.1.15,2013-02-01 01:00:00,
2013-01-31 20:05:00,38.9,21.3,30.00,SSW,194,0.0,0.0,49,0.00,,,0.00,Wunderground v.1.15,2013-02-01 01:05:00,
2013-01-31 20:10:00,38.8,21.7,30.00,West,267,0.0,0.0,50,0.00,,,0.00,Wunderground v.1.15,2013-02-01 01:10:00,
2013-01-31 20:15:00,38.8,21.7,30.00,SSW,211,0.0,0.0,50,0.00,,,0.00,Wunderground v.1.15,2013-02-01 01:15:00,
2013-01-31 20:20:00,38.7,21.6,30.00,SSW,210,0.0,0.0,50,0.00,,,0.00,Wunderground v.1.15,2013-02-01 01:20:00,
2013-01-31 20:25:00,38.6,21.5,30.00,SSW,210,0.0,0.0,50,0.00,,,0.00,Wunderground v.1.15,2013-02-01 01:25:00,
2013-01-31 20:30:00,38.4,22.3,30.01,SSW,210,0.0,0.0,52,0.00,,,0.00,Wunderground v.1.15,2013-02-01 01:30:00,
2013-01-31 20:35:00,38.3,21.3,30.01,SW,222,0.0,0.0,50,0.00,,,0.00,Wunderground v.1.15,2013-02-01 01:35:00,
2013-01-31 20:40:00,38.2,21.6,30.00,SW,222,0.0,0.0,51,0.00,,,0.00,Wunderground v.1.15,2013-02-01 01:40:00,
2013-01-31 20:45:00,38.0,21.5,30.00,SW,219,0.0,0.0,51,0.00,,,0.00,Wunderground v.1.15,2013-02-01 01:45:00,
2013-01-31 20:50:00,37.9,21.4,30.00,SW,219,0.0,0.0,51,0.00,,,0.00,Wunderground v.1.15,2013-02-01 01:50:00,
2013-01-31 21:00:00,37.7,21.6,30.01,SSE,153,0.0,0.0,52,0.00,,,0.00,Wunderground v.1.15,2013-02-01 02:00:00,
2013-01-31 21:10:00,37.4,21.8,30.01,SSE,153,0.0,0.0,53,0.00,,,0.00,Wunderground v.1.15,2013-02-01 02:10:00,
2013-01-31 21:20:00,37.0,21.9,30.01,SE,141,0.0,0.0,54,0.00,,,0.00,Wunderground v.1.15,2013-02-01 02:20:00,
2013-01-31 21:25:00,36.9,21.8,30.01,SE,142,0.0,0.0,54,0.00,,,0.00,Wunderground v.1.15,2013-02-01 02:25:00,
2013-01-31 21:30:00,36.8,21.3,30.01,SE,142,0.0,0.0,53,0.00,,,0.00,Wunderground v.1.15,2013-02-01 02:30:00,
2013-01-31 21:35:00,36.8,21.7,30.01,SE,142,0.0,0.0,54,0.00,,,0.00,Wunderground v.1.15,2013-02-01 02:35:00,
2013-01-31 21:40:00,36.7,22.0,30.00,SE,142,0.0,0.0,55,0.00,,,0.00,Wunderground v.1.15,2013-02-01 02:40:00,
2013-01-31 21:45:00,36.5,21.8,30.00,SE,140,0.0,0.0,55,0.00,,,0.00,Wunderground v.1.15,2013-02-01 02:45:00,
2013-01-31 21:50:00,36.3,21.7,30.00,SE,140,0.0,0.0,55,0.00,,,0.00,Wunderground v.1.15,2013-02-01 02:50:00,
2013-01-31 22:00:00,36.1,22.3,30.00,South,171,0.0,0.0,57,0.00,,,0.00,Wunderground v.1.15,2013-02-01 03:00:00,
2013-01-31 22:05:00,35.9,22.1,30.00,South,171,0.0,0.0,57,0.00,,,0.00,Wunderground v.1.15,2013-02-01 03:05:00,
2013-01-31 22:10:00,35.7,21.9,30.01,South,171,0.0,0.0,57,0.00,,,0.00,Wunderground v.1.15,2013-02-01 03:10:00,
2013-01-31 22:15:00,35.6,21.9,30.01,South,171,0.0,0.0,57,0.00,,,0.00,Wunderground v.1.15,2013-02-01 03:15:00,
2013-01-31 22:20:00,35.4,22.1,30.01,South,171,0.0,0.0,58,0.00,,,0.00,Wunderground v.1.15,2013-02-01 03:20:00,
2013-01-31 22:30:00,34.9,22.0,30.01,South,171,0.0,0.0,59,0.00,,,0.00,Wunderground v.1.15,2013-02-01 03:30:00,
2013-01-31 22:35:00,34.7,23.0,30.01,South,171,0.0,0.0,62,0.00,,,0.00,Wunderground v.1.15,2013-02-01 03:35:00,
2013-01-31 22:40:00,34.4,21.9,30.01,South,171,0.0,0.0,60,0.00,,,0.00,Wunderground v.1.15,2013-02-01 03:40:00,
2013-01-31 22:45:00,34.3,21.8,30.02,South,171,0.0,0.0,60,0.00,,,0.00,Wunderground v.1.15,2013-02-01 03:45:00,
2013-01-31 22:50:00,34.1,21.7,30.02,South,171,0.0,0.0,60,0.00,,,0.00,Wunderground v.1.15,2013-02-01 03:50:00,
2013-01-31 22:55:00,33.9,21.1,30.02,South,171,0.0,0.0,59,0.00,,,0.00,Wunderground v.1.15,2013-02-01 03:55:00,
2013-01-31 23:00:00,33.8,21.4,30.01,South,171,0.0,0.0,60,0.00,,,0.00,Wunderground v.1.15,2013-02-01 04:00:00,
2013-01-31 23:05:00,33.7,21.3,30.02,South,171,0.0,0.0,60,0.00,,,0.00,Wunderground v.1.15,2013-02-01 04:05:00,
2013-01-31 23:10:00,33.6,21.6,30.02,South,171,0.0,0.0,61,0.00,,,0.00,Wunderground v.1.15,2013-02-01 04:10:00,
2013-01-31 23:15:00,33.5,22.2,30.02,South,171,0.0,0.0,63,0.00,,,0.00,Wunderground v.1.15,2013-02-01 04:15:00,
2013-01-31 23:20:00,33.5,22.2,30.02,South,171,0.0,0.0,63,0.00,,,0.00,Wunderground v.1.15,2013-02-01 04:20:00,
2013-01-31 23:30:00,33.3,21.7,30.01,SSE,159,0.0,0.0,62,0.00,,,0.00,Wunderground v.1.15,2013-02-01 04:30:00,
2013-01-31 23:40:00,33.6,21.2,30.01,SSE,159,0.0,0.0,60,0.00,,,0.00,Wunderground v.1.15,2013-02-01 04:40:00,
2013-01-31 23:50:00,33.5,23.4,30.00,SSE,159,0.0,0.0,66,0.00,,,0.00,Wunderground v.1.15,2013-02-01 04:50:00,
2013-01-31 23:55:00,33.3,22.8,30.00,SSE,159,0.0,0.0,65,0.00,,,0.00,Wunderground v.1.15,2013-02-01 04:55:00,